tititudorancea.com
Station Historical Data
Daily Summary for January 10, 2018 Units:  Metric    English   Both
« Previous Day
Next Day »
Daily Weekly Monthly Yearly Custom
  High: Low: Average:
Temperature: -17.8 °C 8.9 °C 13.6 °C
Dew Point: -17.8 °C -1.6 °C 6.4 °C
Humidity: Humidity % 14 % 68 %
Wind Speed: 0 km/h 0 km/h 5.8 km/h
Wind Gust: 0 km/h - -
Wind:- - WSW
Pressure: 0 hPa 1012.1 hPa -
Precipitation: 0 mm    
Historical Graphs
 
 
Ararat weather Find more about Weather in Ararat, AU


 



 


Tabular Data for January 10, 2018
Time Temperature Dew Point Pressure Wind Wind Speed Wind Gust Humidity Rainfall Rate (Hourly)
-17.8 °C -17.8 °C 0 hPa Calm     Humidity % 0 mm
00:00 11.3 °C 7.1 °C 1018.5 hPa North 5.3 km/h 7.4 km/h 75 % 0 mm
00:02 11.3 °C 7.2 °C 1018.5 hPa North 7.9 km/h 9.3 km/h 76 % 0 mm
00:05 11.2 °C 7.2 °C 1018.5 hPa North 3.5 km/h 7.4 km/h 76 % 0 mm
00:06 11.2 °C 7.2 °C 1018.5 hPa South 4 km/h 9.7 km/h 76 % 0 mm
00:10 11.1 °C 7.2 °C 1018.5 hPa South 4.7 km/h 9.7 km/h 77 % 0 mm
00:11 11.1 °C 7.2 °C 1018.5 hPa South 6.1 km/h 9.3 km/h 77 % 0 mm
00:14 11.1 °C 7.2 °C 1018.5 hPa South 0.6 km/h 13 km/h 77 % 0 mm
00:16 11 °C 7.1 °C 1018.5 hPa North 7.2 km/h 9.3 km/h 77 % 0 mm
00:20 10.9 °C 7.1 °C 1018.5 hPa South 7.2 km/h 11.1 km/h 77 % 0 mm
00:21 10.9 °C 7.3 °C 1018.5 hPa North 7.9 km/h 7.9 km/h 78 % 0 mm
00:22 10.9 °C 7.3 °C 1018.5 hPa South 7.7 km/h 7.7 km/h 78 % 0 mm
00:23 10.9 °C 7.2 °C 1018.5 hPa North 7.1 km/h 14.8 km/h 78 % 0 mm
00:24 10.9 °C 7.3 °C 1018.5 hPa North 5.8 km/h 13 km/h 78 % 0 mm
00:25 10.9 °C 7.2 °C 1018.2 hPa South 4.8 km/h 7.4 km/h 78 % 0 mm
00:26 10.9 °C 7.2 °C 1018.2 hPa South 4.3 km/h 9.3 km/h 78 % 0 mm
00:27 10.9 °C 7.2 °C 1018.2 hPa North 5.3 km/h 9.3 km/h 78 % 0 mm
00:28 10.9 °C 7.2 °C 1018.2 hPa North 6.3 km/h 13 km/h 78 % 0 mm
00:29 10.8 °C 7.2 °C 1018.2 hPa South 6.6 km/h 13 km/h 78 % 0 mm
00:30 10.8 °C 7.2 °C 1018.2 hPa South 7.7 km/h 11.1 km/h 78 % 0 mm
00:31 10.8 °C 7.2 °C 1018.2 hPa North 7.2 km/h 11.1 km/h 78 % 0 mm
00:32 10.8 °C 7.2 °C 1018.2 hPa South 5.1 km/h 13 km/h 78 % 0 mm
00:35 10.8 °C 7.1 °C 1018.2 hPa South 7.4 km/h 11.1 km/h 78 % 0 mm
00:38 10.7 °C 7.1 °C 1018.2 hPa South 8.2 km/h 8.2 km/h 78 % 0 mm
00:39 10.7 °C 7.1 °C 1018.2 hPa North 6 km/h 11.1 km/h 78 % 0 mm
00:40 10.7 °C 7.2 °C 1018.2 hPa South 4.8 km/h 7.4 km/h 79 % 0 mm
00:41 10.7 °C 7.2 °C 1018.2 hPa North 4.7 km/h 7.4 km/h 79 % 0 mm
00:42 10.7 °C 7.2 °C 1018.2 hPa North 8.5 km/h 11.1 km/h 79 % 0 mm
00:43 10.7 °C 7.2 °C 1018.2 hPa North 8.5 km/h 11.1 km/h 79 % 0 mm
00:46 10.6 °C 7.1 °C 1018.2 hPa North 4.5 km/h 14.8 km/h 79 % 0 mm
00:47 10.6 °C 7.1 °C 1018.2 hPa South 7.4 km/h 9.3 km/h 79 % 0 mm
00:48 10.6 °C 7.1 °C 1018.2 hPa North 7.7 km/h 9.3 km/h 79 % 0 mm
00:49 10.6 °C 7.1 °C 1018.2 hPa South 6.3 km/h 9.7 km/h 79 % 0 mm
00:52 10.5 °C 7 °C 1018.2 hPa South 6.6 km/h 11.3 km/h 79 % 0 mm
00:53 10.5 °C 7 °C 1017.8 hPa South 6.3 km/h 12.9 km/h 79 % 0 mm
00:54 10.5 °C 7 °C 1017.8 hPa South 11.1 km/h 14.8 km/h 79 % 0 mm
00:55 10.5 °C 7 °C 1017.8 hPa South 5.3 km/h 11.3 km/h 79 % 0 mm
00:56 10.5 °C 7 °C 1017.8 hPa North 6.4 km/h 11.1 km/h 79 % 0 mm
00:59 10.4 °C 7.2 °C 1017.8 hPa South 9.5 km/h 11.1 km/h 80 % 0 mm
01:01 10.4 °C 7.2 °C 1017.8 hPa North 7.6 km/h 9.3 km/h 80 % 0 mm
01:02 10.4 °C 7.1 °C 1017.8 hPa South 9.5 km/h 16.7 km/h 80 % 0 mm
01:04 10.4 °C 7.1 °C 1017.8 hPa North 7.2 km/h 11.1 km/h 80 % 0 mm
01:05 10.4 °C 7.1 °C 1017.5 hPa South 8.7 km/h 11.1 km/h 80 % 0 mm
01:08 10.4 °C 7.1 °C 1017.5 hPa North 9.5 km/h 13 km/h 80 % 0 mm
01:09 10.4 °C 7.1 °C 1017.5 hPa South 6.9 km/h 14.8 km/h 80 % 0 mm
01:10 10.3 °C 7.1 °C 1017.5 hPa North 6.6 km/h 11.1 km/h 80 % 0 mm
01:11 10.4 °C 7.1 °C 1017.5 hPa South 4.8 km/h 7.4 km/h 80 % 0 mm
01:12 10.3 °C 7.1 °C 1017.5 hPa South 5.1 km/h 12.9 km/h 80 % 0 mm
01:15 10.3 °C 7.1 °C 1017.8 hPa North 7.7 km/h 11.1 km/h 80 % 0 mm
01:16 10.3 °C 7.1 °C 1017.8 hPa North 7.2 km/h 11.1 km/h 80 % 0 mm
01:17 10.3 °C 7.1 °C 1017.8 hPa South 5.6 km/h 12.9 km/h 80 % 0 mm
01:18 10.3 °C 7 °C 1017.8 hPa South 6 km/h 13 km/h 80 % 0 mm
01:19 10.3 °C 7 °C 1017.8 hPa South 6.3 km/h 13 km/h 80 % 0 mm
01:20 10.3 °C 7 °C 1017.8 hPa South 7.2 km/h 9.3 km/h 80 % 0 mm
01:22 10.3 °C 7 °C 1017.8 hPa South 6.4 km/h 11.1 km/h 80 % 0 mm
01:23 10.3 °C 7 °C 1017.8 hPa North 6.1 km/h 11.1 km/h 80 % 0 mm
01:24 10.3 °C 7 °C 1017.8 hPa South 4.7 km/h 9.3 km/h 80 % 0 mm
01:25 10.2 °C 6.9 °C 1017.8 hPa South 4.5 km/h 7.4 km/h 80 % 0 mm
01:28 10.2 °C 6.9 °C 1017.8 hPa North 4.8 km/h 7.4 km/h 80 % 0 mm
01:31 10.2 °C 7.1 °C 1017.5 hPa South 6.6 km/h 13 km/h 81 % 0 mm
01:32 10.2 °C 7.1 °C 1017.5 hPa South 6.8 km/h 11.3 km/h 81 % 0 mm
01:34 10.2 °C 7.1 °C 1017.8 hPa South 9.5 km/h 13 km/h 81 % 0 mm
01:35 10.2 °C 7.1 °C 1017.8 hPa South 6.8 km/h 11.1 km/h 81 % 0 mm
01:36 10.2 °C 7.1 °C 1017.8 hPa South 5.6 km/h 13 km/h 81 % 0 mm
01:37 10.2 °C 7.1 °C 1017.8 hPa North 6.1 km/h 9.3 km/h 81 % 0 mm
01:38 10.2 °C 7.1 °C 1017.8 hPa South 5.1 km/h 11.1 km/h 81 % 0 mm
01:41 10.1 °C 7 °C 1017.8 hPa South 4 km/h 6.4 km/h 81 % 0 mm
01:43 10.1 °C 7 °C 1017.8 hPa North 4.2 km/h 7.4 km/h 81 % 0 mm
01:44 10.1 °C 7 °C 1017.8 hPa North 4 km/h 5.6 km/h 81 % 0 mm
01:45 10.1 °C 6.9 °C 1017.8 hPa South 5.8 km/h 7.4 km/h 81 % 0 mm
01:46 10.1 °C 6.9 °C 1017.8 hPa South 6.3 km/h 11.3 km/h 81 % 0 mm
01:47 10.1 °C 6.9 °C 1017.8 hPa South 8.7 km/h 13 km/h 81 % 0 mm
01:49 10.1 °C 6.9 °C 1017.8 hPa South 7.4 km/h 11.1 km/h 81 % 0 mm
01:50 10.1 °C 6.9 °C 1017.8 hPa North 6.6 km/h 11.1 km/h 81 % 0 mm
01:51 10.1 °C 6.9 °C 1017.8 hPa South 5.5 km/h 7.4 km/h 81 % 0 mm
01:52 10.1 °C 6.9 °C 1017.8 hPa South 3.9 km/h 7.4 km/h 81 % 0 mm
01:54 10 °C 6.9 °C 1017.8 hPa South 6.1 km/h 9.3 km/h 81 % 0 mm
01:55 10 °C 6.9 °C 1017.8 hPa North 6.1 km/h 7.4 km/h 81 % 0 mm
01:56 10 °C 6.9 °C 1017.8 hPa South 4.8 km/h 7.4 km/h 81 % 0 mm
01:58 10 °C 6.9 °C 1017.8 hPa North 4.3 km/h 6.4 km/h 81 % 0 mm
02:00 9.9 °C 6.8 °C 1017.8 hPa North 4.5 km/h 7.4 km/h 81 % 0 mm
02:01 9.9 °C 6.8 °C 1017.8 hPa North 4.5 km/h 7.4 km/h 81 % 0 mm
02:02 10 °C 6.9 °C 1017.8 hPa North 3.4 km/h 7.4 km/h 81 % 0 mm
02:03 9.9 °C 6.8 °C 1017.8 hPa North 5.1 km/h 7.4 km/h 81 % 0 mm
02:05 9.9 °C 6.8 °C 1017.8 hPa South 5 km/h 9.3 km/h 81 % 0 mm
02:06 9.9 °C 6.8 °C 1017.8 hPa South 4 km/h 9.3 km/h 81 % 0 mm
02:10 9.9 °C 6.8 °C 1017.8 hPa South 6.6 km/h 7.4 km/h 81 % 0 mm
02:11 9.9 °C 6.8 °C 1017.8 hPa North 7.1 km/h 9.3 km/h 81 % 0 mm
02:12 9.9 °C 6.8 °C 1017.8 hPa North 5.8 km/h 9.3 km/h 81 % 0 mm
02:14 9.9 °C 6.8 °C 1017.8 hPa South 3.5 km/h 7.4 km/h 81 % 0 mm
02:15 9.9 °C 6.8 °C 1017.8 hPa South 3.1 km/h 7.4 km/h 81 % 0 mm
02:16 9.9 °C 6.8 °C 1017.8 hPa North 5.5 km/h 9.3 km/h 81 % 0 mm
02:17 9.9 °C 6.8 °C 1017.8 hPa North 3.1 km/h 5.6 km/h 81 % 0 mm
02:18 9.9 °C 6.8 °C 1017.8 hPa North 2.4 km/h 5.6 km/h 81 % 0 mm
02:19 9.8 °C 6.7 °C 1017.8 hPa North 3.9 km/h 7.4 km/h 81 % 0 mm
02:20 9.8 °C 6.7 °C 1017.8 hPa North 7.7 km/h 11.1 km/h 81 % 0 mm
02:21 9.8 °C 6.7 °C 1017.8 hPa North 2.7 km/h 9.3 km/h 81 % 0 mm
02:23 9.8 °C 6.7 °C 1017.8 hPa South 4.8 km/h 6.4 km/h 81 % 0 mm
02:24 9.8 °C 6.7 °C 1017.8 hPa South 5 km/h 8 km/h 81 % 0 mm
02:26 9.7 °C 6.6 °C 1017.8 hPa North 2.4 km/h 5.6 km/h 81 % 0 mm
02:27 9.7 °C 6.6 °C 1017.8 hPa North 3.5 km/h 5.6 km/h 81 % 0 mm
02:28 9.7 °C 6.6 °C 1017.8 hPa South 2.3 km/h 7.4 km/h 81 % 0 mm
02:29 9.7 °C 6.6 °C 1017.8 hPa North 1.6 km/h 4.8 km/h 81 % 0 mm
02:30 9.7 °C 6.6 °C 1017.8 hPa North 4.3 km/h 4.8 km/h 81 % 0 mm
02:31 9.7 °C 6.6 °C 1017.8 hPa North 6.3 km/h 7.4 km/h 81 % 0 mm
02:32 9.7 °C 6.6 °C 1017.8 hPa South 4.2 km/h 7.4 km/h 81 % 0 mm
02:33 9.7 °C 6.7 °C 1017.8 hPa North 4.5 km/h 7.4 km/h 82 % 0 mm
02:34 9.7 °C 6.7 °C 1017.8 hPa South 2.1 km/h 7.4 km/h 82 % 0 mm
02:35 9.6 °C 6.7 °C 1017.8 hPa South 5.6 km/h 9.3 km/h 82 % 0 mm
02:36 9.6 °C 6.7 °C 1017.8 hPa South 6.1 km/h 9.3 km/h 82 % 0 mm
02:37 9.6 °C 6.7 °C 1017.8 hPa North 2.3 km/h 3.7 km/h 82 % 0 mm
02:38 9.6 °C 6.6 °C 1017.8 hPa South 5.1 km/h 9.3 km/h 82 % 0 mm
02:39 9.6 °C 6.6 °C 1017.8 hPa South 4.7 km/h 9.3 km/h 82 % 0 mm
02:40 9.6 °C 6.6 °C 1017.8 hPa South 5.8 km/h 9.3 km/h 82 % 0 mm
02:43 9.5 °C 6.6 °C 1017.5 hPa South 3.5 km/h 7.4 km/h 82 % 0 mm
02:44 9.5 °C 6.6 °C 1017.5 hPa South 4.5 km/h 7.4 km/h 82 % 0 mm
02:45 9.5 °C 6.6 °C 1017.5 hPa South 2.7 km/h 7.4 km/h 82 % 0 mm
02:46 9.5 °C 6.6 °C 1017.5 hPa North 3.5 km/h 5.6 km/h 82 % 0 mm
02:47 9.4 °C 6.5 °C 1017.5 hPa South 7.4 km/h 11.1 km/h 82 % 0 mm
02:52 9.4 °C 6.5 °C 1017.5 hPa South 5 km/h 9.3 km/h 82 % 0 mm
02:53 9.4 °C 6.4 °C 1017.5 hPa South 4.2 km/h 9.3 km/h 82 % 0 mm
02:55 9.4 °C 6.4 °C 1017.5 hPa North 5.5 km/h 7.4 km/h 82 % 0 mm
02:56 9.3 °C 6.4 °C 1017.5 hPa South 4.2 km/h 7.4 km/h 82 % 0 mm
02:57 9.3 °C 6.4 °C 1017.5 hPa North 2.9 km/h 7.4 km/h 82 % 0 mm
02:58 9.3 °C 6.4 °C 1017.5 hPa South 3.7 km/h 3.7 km/h 82 % 0 mm
02:59 9.3 °C 6.4 °C 1017.5 hPa North 4 km/h 4.8 km/h 82 % 0 mm
03:00 9.3 °C 6.4 °C 1017.5 hPa South 2.7 km/h 5.6 km/h 82 % 0 mm
03:01 9.3 °C 6.4 °C 1017.5 hPa South 2.4 km/h 5.6 km/h 82 % 0 mm
03:02 9.2 °C 6.3 °C 1017.5 hPa North 2.4 km/h 5.6 km/h 82 % 0 mm
03:03 9.2 °C 6.3 °C 1017.5 hPa South 2.4 km/h 6.4 km/h 82 % 0 mm
03:04 9.2 °C 6.5 °C 1017.5 hPa North 5.5 km/h 7.4 km/h 83 % 0 mm
03:06 9.2 °C 6.5 °C 1017.5 hPa North 3.7 km/h 7.4 km/h 83 % 0 mm
03:08 9.2 °C 6.4 °C 1017.5 hPa North 2.6 km/h 5.6 km/h 83 % 0 mm
03:09 9.2 °C 6.4 °C 1017.5 hPa North 5.8 km/h 7.4 km/h 83 % 0 mm
03:10 9.2 °C 6.4 °C 1017.5 hPa South 4 km/h 5.6 km/h 83 % 0 mm
03:11 9.2 °C 6.4 °C 1017.5 hPa North 1.9 km/h 5.6 km/h 83 % 0 mm
03:12 9.1 °C 6.4 °C 1017.5 hPa North 1.6 km/h 5.6 km/h 83 % 0 mm
03:13 9.1 °C 6.4 °C 1017.5 hPa South 4 km/h 7.4 km/h 83 % 0 mm
03:14 9.1 °C 6.4 °C 1017.5 hPa South 2.3 km/h 5.6 km/h 83 % 0 mm
03:18 9.1 °C 6.4 °C 1017.5 hPa North 2.7 km/h 5.6 km/h 83 % 0 mm
03:20 9.1 °C 6.3 °C 1017.2 hPa North 4.3 km/h 7.4 km/h 83 % 0 mm
03:22 9 °C 6.3 °C 1017.2 hPa South 2.3 km/h 7.4 km/h 83 % 0 mm
03:23 9 °C 6.3 °C 1017.2 hPa South 2.3 km/h 3.7 km/h 83 % 0 mm
03:24 9 °C 6.3 °C 1017.2 hPa North 2.7 km/h 5.6 km/h 83 % 0 mm
03:26 8.9 °C 6.2 °C 1017.2 hPa South 4 km/h 9.3 km/h 83 % 0 mm
03:27 8.9 °C 6.2 °C 1017.2 hPa South 3.9 km/h 6.4 km/h 83 % 0 mm
03:28 8.9 °C 6.4 °C 1017.2 hPa North 5.3 km/h 7.4 km/h 84 % 0 mm
03:29 8.9 °C 6.4 °C 1017.2 hPa South 4.5 km/h 7.4 km/h 84 % 0 mm
03:30 8.9 °C 6.4 °C 1017.2 hPa South 2.3 km/h 7.4 km/h 84 % 0 mm
03:33 8.9 °C 6.4 °C 1016.8 hPa North 7.7 km/h 11.1 km/h 84 % 0 mm
03:34 9 °C 6.4 °C 1016.8 hPa South 5 km/h 9.3 km/h 84 % 0 mm
03:35 9 °C 6.4 °C 1016.8 hPa North 3.9 km/h 9.3 km/h 84 % 0 mm
03:39 9 °C 6.4 °C 1016.8 hPa South 4.8 km/h 9.3 km/h 84 % 0 mm
03:41 9 °C 6.4 °C 1016.8 hPa South 6.3 km/h 7.4 km/h 84 % 0 mm
03:42 9 °C 6.4 °C 1016.8 hPa South 7.7 km/h 9.7 km/h 84 % 0 mm
03:43 9 °C 6.4 °C 1016.8 hPa South 7.7 km/h 9.7 km/h 84 % 0 mm
03:44 9 °C 6.4 °C 1016.8 hPa South 6.3 km/h 9.3 km/h 84 % 0 mm
03:45 9 °C 6.4 °C 1016.8 hPa South 6.4 km/h 9.3 km/h 84 % 0 mm
03:46 9 °C 6.4 °C 1016.8 hPa North 8.4 km/h 9.3 km/h 84 % 0 mm
03:47 9 °C 6.4 °C 1016.8 hPa South 9.2 km/h 13 km/h 84 % 0 mm
03:48 9 °C 6.4 °C 1016.8 hPa North 7.7 km/h 13 km/h 84 % 0 mm
03:50 9 °C 6.4 °C 1016.8 hPa South 6 km/h 8 km/h 84 % 0 mm
03:52 9 °C 6.4 °C 1016.8 hPa North 6.9 km/h 11.1 km/h 84 % 0 mm
03:53 9 °C 6.4 °C 1017.2 hPa South 7.4 km/h 11.1 km/h 84 % 0 mm
03:55 8.9 °C 6.4 °C 1017.2 hPa North 6.4 km/h 9.3 km/h 84 % 0 mm
03:58 8.9 °C 6.4 °C 1017.2 hPa South 8.7 km/h 12.9 km/h 84 % 0 mm
04:00 9 °C 6.4 °C 1017.2 hPa South 9.5 km/h 13 km/h 84 % 0 mm
04:01 9 °C 6.4 °C 1016.8 hPa North 7.7 km/h 11.1 km/h 84 % 0 mm
04:03 9 °C 6.4 °C 1016.8 hPa South 6.6 km/h 11.1 km/h 84 % 0 mm
04:04 9 °C 6.4 °C 1016.8 hPa North 6 km/h 11.1 km/h 84 % 0 mm
04:05 9 °C 6.4 °C 1016.8 hPa North 7.1 km/h 11.1 km/h 84 % 0 mm
04:08 9 °C 6.4 °C 1016.8 hPa North 8 km/h 11.1 km/h 84 % 0 mm
04:13 9 °C 6.4 °C 1017.2 hPa South 8 km/h 11.1 km/h 84 % 0 mm
04:14 9 °C 6.4 °C 1017.2 hPa South 6.9 km/h 9.3 km/h 84 % 0 mm
04:15 9 °C 6.4 °C 1017.2 hPa South 7.7 km/h 11.3 km/h 84 % 0 mm
04:16 9 °C 6.6 °C 1017.2 hPa North 5.6 km/h 9.3 km/h 85 % 0 mm
04:17 9 °C 6.4 °C 1017.2 hPa North 6.3 km/h 7.4 km/h 84 % 0 mm
04:18 9.1 °C 6.5 °C 1017.2 hPa South 6.6 km/h 8 km/h 84 % 0 mm
04:21 9.1 °C 6.5 °C 1017.2 hPa South 7.1 km/h 9.3 km/h 84 % 0 mm
04:22 9.1 °C 6.7 °C 1016.8 hPa South 8.2 km/h 9.7 km/h 85 % 0 mm
04:25 9.1 °C 6.6 °C 1017.2 hPa South 6.4 km/h 9.3 km/h 84 % 0 mm
04:26 9.1 °C 6.6 °C 1017.2 hPa South 4.7 km/h 11.1 km/h 84 % 0 mm
04:27 9.1 °C 6.6 °C 1017.2 hPa North 5.1 km/h 8 km/h 84 % 0 mm
04:31 9.2 °C 6.6 °C 1017.2 hPa North 6.8 km/h 11.1 km/h 84 % 0 mm
04:38 9.2 °C 6.6 °C 1017.2 hPa South 8.9 km/h 13 km/h 84 % 0 mm
04:44 9.1 °C 6.6 °C 1017.2 hPa North 6 km/h 11.1 km/h 84 % 0 mm
04:48 9.1 °C 6.7 °C 1017.2 hPa South 8.7 km/h 12.9 km/h 85 % 0 mm
04:56 9.1 °C 6.6 °C 1016.8 hPa South 6.4 km/h 9.3 km/h 84 % 0 mm
04:57 9.1 °C 6.6 °C 1016.8 hPa South 6.8 km/h 9.3 km/h 84 % 0 mm
05:02 9 °C 6.6 °C 1016.8 hPa South 6.8 km/h 13 km/h 85 % 0 mm
05:09 9 °C 6.6 °C 1016.5 hPa South 6.3 km/h 9.7 km/h 85 % 0 mm
05:14 8.9 °C 6.6 °C 1016.8 hPa North 7.1 km/h 14.8 km/h 85 % 0 mm
05:18 9 °C 6.6 °C 1016.8 hPa South 7.2 km/h 11.1 km/h 85 % 0 mm
05:22 9 °C 6.6 °C 1016.8 hPa South 3.7 km/h 5.6 km/h 85 % 0 mm
05:24 9 °C 6.6 °C 1016.8 hPa South 6.8 km/h 9.3 km/h 85 % 0 mm
05:25 9 °C 6.6 °C 1016.8 hPa South 7.1 km/h 9.3 km/h 85 % 0 mm
05:29 8.9 °C 6.5 °C 1016.8 hPa South 5.3 km/h 7.4 km/h 85 % 0 mm
05:30 8.9 °C 6.5 °C 1016.8 hPa South 5.1 km/h 7.4 km/h 85 % 0 mm
05:33 8.9 °C 6.7 °C 1017.2 hPa South 9.7 km/h 13 km/h 86 % 0 mm
05:34 8.9 °C 6.7 °C 1017.2 hPa South 8.5 km/h 13 km/h 86 % 0 mm
05:35 8.9 °C 6.7 °C 1017.2 hPa North 7.7 km/h 13 km/h 86 % 0 mm
05:37 8.9 °C 6.7 °C 1017.2 hPa South 8.7 km/h 16.7 km/h 86 % 0 mm
10:52 20.1 °C 9.6 °C 1015.8 hPa South 9.5 km/h 18.5 km/h 51 % 0 mm
10:54 20.3 °C 9.8 °C 1015.8 hPa SE 7.9 km/h 11.3 km/h 51 % 0 mm
11:01 21.1 °C 9.3 °C 1015.8 hPa South 4 km/h 11.1 km/h 47 % 0 mm
11:02 21.1 °C 9.1 °C 1015.8 hPa SSE 11.6 km/h 14.5 km/h 46 % 0 mm
11:04 21 °C 8.9 °C 1015.8 hPa South 7.7 km/h 11.1 km/h 46 % 0 mm
11:08 21.1 °C 9.7 °C 1015.8 hPa SSE 6.3 km/h 11.1 km/h 48 % 0 mm
11:09 21.2 °C 9.1 °C 1015.8 hPa SSE 7.7 km/h 11.1 km/h 46 % 0 mm
11:11 21.3 °C 8.8 °C 1015.8 hPa SSE 13.7 km/h 18.5 km/h 45 % 0 mm
11:13 21.3 °C 8.9 °C 1015.8 hPa SE 8.4 km/h 14.8 km/h 45 % 0 mm
11:19 21.8 °C 9.3 °C 1015.8 hPa ESE 14.5 km/h 18.5 km/h 45 % 0 mm
11:20 22 °C 8.8 °C 1015.8 hPa East 9.7 km/h 11.1 km/h 43 % 0 mm
11:21 22.1 °C 8.9 °C 1015.8 hPa East 8.9 km/h 14.8 km/h 43 % 0 mm
11:26 22.4 °C 9.2 °C 1015.8 hPa SE 7.1 km/h 11.3 km/h 43 % 0 mm
11:28 22.4 °C 7.7 °C 1015.8 hPa SE 11.6 km/h 14.8 km/h 39 % 0 mm
11:36 22.8 °C 8.4 °C 1015.8 hPa SE 6.1 km/h 11.1 km/h 40 % 0 mm
11:46 23 °C 8.7 °C 1015.5 hPa SSE 10.6 km/h 14.8 km/h 40 % 0 mm
11:47 23.1 °C 8.4 °C 1015.5 hPa SE 11.7 km/h 14.8 km/h 39 % 0 mm
11:55 23.4 °C 8.3 °C 1015.5 hPa SSE 7.7 km/h 8 km/h 38 % 0 mm
12:02 23.6 °C 7.6 °C 1015.5 hPa SE 3.5 km/h 7.4 km/h 36 % 0 mm
12:07 23.4 °C 7.9 °C 1015.5 hPa South 10.8 km/h 16.7 km/h 37 % 0 mm
12:10 23.2 °C 8.1 °C 1015.5 hPa South 10.1 km/h 13 km/h 38 % 0 mm
12:18 23.3 °C 7.8 °C 1015.1 hPa SSW 12.9 km/h 14.8 km/h 37 % 0 mm
12:22 23.3 °C 6.6 °C 1015.5 hPa South 8.4 km/h 11.1 km/h 34 % 0 mm
12:23 23.3 °C 7 °C 1015.5 hPa South 7.2 km/h 11.1 km/h 35 % 0 mm
12:24 23.3 °C 7.4 °C 1015.5 hPa South 8 km/h 9.3 km/h 36 % 0 mm
12:26 23.3 °C 7.8 °C 1015.5 hPa South 1.8 km/h 5.6 km/h 37 % 0 mm
12:31 23.3 °C 7.8 °C 1015.5 hPa South 5.1 km/h 5.6 km/h 37 % 0 mm
12:32 23.3 °C 8.2 °C 1015.5 hPa South 5.1 km/h 11.3 km/h 38 % 0 mm
12:34 23.3 °C 7.8 °C 1015.5 hPa SSW 10.6 km/h 13 km/h 37 % 0 mm
12:35 23.2 °C 7.3 °C 1015.5 hPa SSW 6.4 km/h 13 km/h 36 % 0 mm
12:40 23.4 °C 7.9 °C 1015.5 hPa SSW 4.7 km/h 7.4 km/h 37 % 0 mm
12:46 23.4 °C 7.1 °C 1015.5 hPa SSW 10 km/h 14.8 km/h 35 % 0 mm
12:48 23.4 °C 7.1 °C 1015.5 hPa SSW 6.4 km/h 13 km/h 35 % 0 mm
12:54 23.5 °C 7.2 °C 1015.5 hPa SSW 7.9 km/h 9.3 km/h 35 % 0 mm
12:55 23.6 °C 6.8 °C 1015.5 hPa SSW 3.5 km/h 9.3 km/h 34 % 0 mm
13:00 23.6 °C 7.7 °C 1015.5 hPa SSW 2.7 km/h 5.6 km/h 36 % 0 mm
13:06 23.8 °C 7.4 °C 1015.1 hPa SSW 1.8 km/h 5.6 km/h 35 % 0 mm
13:12 24.3 °C 7 °C 1015.1 hPa SSW 3.7 km/h 7.4 km/h 33 % 0 mm
13:13 24.5 °C 7.2 °C 1015.1 hPa SSW 4 km/h 7.4 km/h 33 % 0 mm
13:14 24.7 °C 6.9 °C 1015.1 hPa SW 8.9 km/h 11.3 km/h 32 % 0 mm
13:26 24.6 °C 6.8 °C 1014.8 hPa South 2.6 km/h 5.6 km/h 32 % 0 mm
13:56 25.4 °C 7 °C 1014.8 hPa SSW 12.6 km/h 18.5 km/h 31 % 0 mm
14:01 25.4 °C 7.5 °C 1014.8 hPa SSW 10.6 km/h 18.5 km/h 32 % 0 mm
14:08 25.2 °C 6.9 °C 1014.8 hPa SSW 10.3 km/h 18.5 km/h 31 % 0 mm
14:15 25.1 °C 5.8 °C 1014.4 hPa South 12.9 km/h 16.7 km/h 29 % 0 mm
14:33 25.6 °C 3.6 °C 1014.1 hPa South 8 km/h 18.5 km/h 24 % 0 mm
14:40 25.2 °C 3.2 °C 1014.1 hPa SSW 8.9 km/h 14.8 km/h 24 % 0 mm
15:04 25.8 °C 3.7 °C 1013.8 hPa SW 2.3 km/h 6.4 km/h 24 % 0 mm
15:07 26.1 °C 3.3 °C 1013.8 hPa SW 2.1 km/h 7.4 km/h 23 % 0 mm
15:19 26.4 °C 2.3 °C 1013.8 hPa SSW 3.5 km/h 5.6 km/h 21 % 0 mm
15:31 26.3 °C 2.2 °C 1013.8 hPa SSW 2.4 km/h 6.4 km/h 21 % 0 mm
15:43 27.2 °C 1.6 °C 1013.4 hPa North 5.6 km/h 9.3 km/h 19 % 0 mm
15:53 27 °C 2.1 °C 1013.1 hPa SSW 3.5 km/h 5.6 km/h 20 % 0 mm
16:04 27.3 °C 2.4 °C 1013.4 hPa SSW 7.6 km/h 11.1 km/h 20 % 0 mm
16:23 27.7 °C -0.4 °C 1013.4 hPa SW 1.1 km/h 3.7 km/h 16 % 0 mm
16:25 27.8 °C -0.3 °C 1013.1 hPa SW 9 km/h 11.1 km/h 16 % 0 mm
16:43 28.2 °C -0.9 °C 1013.1 hPa West 6 km/h 9.3 km/h 15 % 0 mm
17:30 29.2 °C -1.1 °C 1012.4 hPa West 7.1 km/h 7.4 km/h 14 % 0 mm
17:47 28.5 °C -1.6 °C 1012.1 hPa West 3.9 km/h 6.4 km/h 14 % 0 mm
17:53 28.6 °C -0.6 °C 1012.1 hPa North 5.8 km/h 8 km/h 15 % 0 mm
18:25 29.1 °C -1.2 °C 1012.1 hPa West 1.6 km/h 3.7 km/h 14 % 0 mm
18:27 29.1 °C -1.1 °C 1012.1 hPa West 0.3 km/h 1.9 km/h 14 % 0 mm
18:39 29.2 °C -1.1 °C 1012.1 hPa West 6.1 km/h 7.4 km/h 14 % 0 mm
19:19 28.7 °C -1.4 °C 1012.1 hPa Calm     14 % 0 mm
19:26 28.7 °C -0.6 °C 1012.1 hPa North 1.1 km/h 3.7 km/h 15 % 0 mm
19:50 28.1 °C -1 °C 1012.1 hPa West 2.4 km/h 5.6 km/h 15 % 0 mm
19:55 28 °C -0.2 °C 1012.4 hPa West 3.9 km/h 5.6 km/h 16 % 0 mm
20:06 27.9 °C -1.1 °C 1012.4 hPa North 4.3 km/h 5.6 km/h 15 % 0 mm
20:17 28.2 °C -0.9 °C 1012.4 hPa West 3.4 km/h 5.6 km/h 15 % 0 mm
21:07 23.9 °C 7.6 °C 1012.8 hPa SSW 6.9 km/h 11.1 km/h 35 % 0 mm
21:36 21.9 °C 11.3 °C 1013.1 hPa South 4.7 km/h 5.6 km/h 51 % 0 mm
21:53 21.1 °C 11.4 °C 1013.1 hPa South 0.2 km/h 1.9 km/h 54 % 0 mm
22:04 20.6 °C 11.5 °C 1013.1 hPa South 1.3 km/h 5.6 km/h 56 % 0 mm
22:23 20.1 °C 11.8 °C 1013.1 hPa South 3.7 km/h 7.4 km/h 59 % 0 mm
22:34 19.8 °C 11.8 °C 1013.1 hPa South 3.4 km/h 5.6 km/h 60 % 0 mm
Ararat Weather
Compliments of Weather Underground - 2.5 mb
Click here to send mail.


ABOUT

Live weather data from Ararat, Victoria, Australia, 3377
Data uploaded from Cumulus every 5 minutes to Weather Underground.
This site then downloads the raw data for formatting and display.
Metric and imperial data can be displayed. Graphs and historical data available.
Includes Sun and Moon times and rain image live from BOM.

Check out Ararat Weather on Facebook, Twitter and Google +

Help support ongoing costs by checking out the ads





Follow @AraratWeather